Zurück zum Katalog

COSMOS 2251

AktivMilitärLEO
NORAD 22675·PAYLOAD·🇷🇺 Russia

Gestartet Jun 16, 1993 von Plesetsk Cosmodrome

Loading…

Nächste Überflüge (nächste 24 Stunden)

TLE

AktuellSource: Space-Track

Epoche: Sep 14, 2026, 12:34 UTC

1 22675U 93036A   26257.52411326  .00000062  00000-0  31916-4 0  9991
2 22675  74.0404 171.9685 0025053 192.1088 167.9464 14.33269118737242

Verfolge COSMOS 2251 in Echtzeit mit AllMySat

Download on the App Store